Notices

What's New in latest Release from April 7th, 2021:

- Updated Glossary, including Speed of Maximum Gust, and Total Hourly Precipitation

- Updated national and regional climate services offices contacts and prices information

- Addition of station inventory lists for 1981-2010, 1971-2000, and 1961-1990 Normals.

If you haven't already, please take our survey and provide feedback about our website: https://eccc.sondage-survey.ca/f/LanguageSelection.aspx?s=442ca660-fcf1-47c0-95a9-59707d6fd709

Hourly Data Report for March 19, 2003

TORONTO CITY
ONTARIO

43°40'00.000" N
79°24'00.000" W
112.50 m
6158355
71508
XTO

Download Data

Hourly Data (March 2003)
Hourly Data Report for March 19, 2003
TIME
LST
Temp Definition
°C
Dew Point Definition
°C
Rel Hum Definition
%
Precip. Amount Definition
mm

Wind Dir Definition
10's deg

Wind Spd Definition
km/h
Visibility Definition
km
Stn Press Definition
kPa
Hmdx Definition


Wind Chill Definition


Weather Definition


00:00 3.7 -10.4 35   LegendMM LegendMM LegendMM 100.78     LegendNANA
01:00 2.8 -11.6 34   LegendMM LegendMM LegendMM 100.81     LegendNANA
02:00 2.0 -10.9 38   LegendMM LegendMM LegendMM 100.84     LegendNANA
03:00 1.3 -11.5 38   LegendMM LegendMM LegendMM 100.82     LegendNANA
04:00 1.0 -9.4 46   LegendMM LegendMM LegendMM 100.83     LegendNANA
05:00 0.8 -9.3 47   LegendMM LegendMM LegendMM 100.86     LegendNANA
06:00 0.6 -7.3 55   LegendMM LegendMM LegendMM 100.89     LegendNANA
07:00 0.4 -7.0 58   LegendMM LegendMM LegendMM 100.94     LegendNANA
08:00 0.6 -7.0 57   LegendMM LegendMM LegendMM 100.97     LegendNANA
09:00 1.1 -7.5 53   LegendMM LegendMM LegendMM 100.97     LegendNANA
10:00 1.7 -7.4 51   LegendMM LegendMM LegendMM 100.97     LegendNANA
11:00 1.9 -7.5 50   LegendMM LegendMM LegendMM 100.95     LegendNANA
12:00 2.5 -6.4 52   LegendMM LegendMM LegendMM 100.92     LegendNANA
13:00 2.3 -6.4 53   LegendMM LegendMM LegendMM 100.87     LegendNANA
14:00 2.5 -6.0 53   LegendMM LegendMM LegendMM 100.83     LegendNANA
15:00 2.8 -6.4 51   LegendMM LegendMM LegendMM 100.76     LegendNANA
16:00 3.3 -6.5 49   LegendMM LegendMM LegendMM 100.65     LegendNANA
17:00 3.5 -6.3 49   LegendMM LegendMM LegendMM 100.64     LegendNANA
18:00 3.6 -7.0 46   LegendMM LegendMM LegendMM 100.53     LegendNANA
19:00 3.8 -5.8 49   LegendMM LegendMM LegendMM 100.47     LegendNANA
20:00 3.7 -5.3 52   LegendMM LegendMM LegendMM 100.49     LegendNANA
21:00 3.3 -3.8 60   LegendMM LegendMM LegendMM 100.50     LegendNANA
22:00 2.9 -2.7 67   LegendMM LegendMM LegendMM 100.46     LegendNANA
23:00 3.1 -1.7 71   LegendMM LegendMM LegendMM 100.43     LegendNANA

Notes on Data Quality.

Legend

  • E = Estimated
  • M = Missing
  • NA = Not Available*
  • [empty] = Indicates an unobserved value
Date modified: